Terug naar catalogus

CZ-6A DEB

ActiefSSO
NORAD 54992·DEBRIS·🇨🇳 China

Gelanceerd Nov 11, 2022 vanaf Taiyuan Satellite Launch Center

Loading…

Volgende Passages (komende 24 uur)

TLE

VersSource: Space-Track

Epoch: Sep 13, 2026, 22:45 UTC

1 54992U 22151UH  26256.94818562  .00002055  00000-0  87332-3 0  9992
2 54992  98.7834 273.0860 0024519 354.0650   6.0236 14.26227292197630

Volg CZ-6A DEB in realtime met AllMySat

Download on the App Store